Radiation Dose at Monitoring Post of Fukushima Daini Nuclear Power Station
Date,Time,MP-1(microSv/h),MP-2(microSv/h),MP-3(microSv/h),MP-4(microSv/h),MP-5(microSv/h),MP-6(microSv/h),MP-7(microSv/h),Wind Direction,Wind Velocity(m/s),Rain
2022/07/16,00:00,0.146,0.136,0.213,0.207,0.213,0.116,0.076,northwest,1.9,Yes
2022/07/16,00:10,0.146,0.137,0.214,0.206,0.211,0.116,0.075,northwest,1.9,Yes
2022/07/16,00:20,0.144,0.139,0.211,0.206,0.209,0.117,0.077,northwest,2.0,Yes
2022/07/16,00:30,0.148,0.137,0.214,0.209,0.213,0.117,0.078,northeast,3.1,Yes
2022/07/16,00:40,0.147,0.139,0.214,0.206,0.212,0.118,0.078,north-northeast,4.3,Yes
2022/07/16,00:50,0.147,0.140,0.213,0.208,0.212,0.119,0.079,southwest,3.6,Yes
2022/07/16,01:00,0.149,0.140,0.216,0.210,0.214,0.119,0.080,west-southwest,3.5,Yes
2022/07/16,01:10,0.149,0.142,0.216,0.207,0.213,0.120,0.081,north,3.0,Yes
2022/07/16,01:20,0.147,0.141,0.215,0.209,0.214,0.120,0.082,west,6.3,Yes
2022/07/16,01:30,0.150,0.141,0.215,0.209,0.216,0.121,0.082,west,2.3,Yes
2022/07/16,01:40,0.149,0.142,0.215,0.207,0.213,0.122,0.082,west-southwest,0.7,Yes
2022/07/16,01:50,0.149,0.141,0.217,0.211,0.216,0.120,0.082,-,CALM,Yes
2022/07/16,02:00,0.148,0.141,0.216,0.209,0.215,0.119,0.080,east-northeast,0.6,Yes
2022/07/16,02:10,0.147,0.141,0.215,0.208,0.212,0.119,0.080,north-northwest,2.3,Yes
2022/07/16,02:20,0.147,0.140,0.215,0.209,0.216,0.119,0.078,north-northwest,3.4,No
2022/07/16,02:30,0.147,0.140,0.213,0.206,0.212,0.117,0.078,northwest,5.1,No
2022/07/16,02:40,0.145,0.138,0.214,0.207,0.211,0.117,0.078,northwest,4.6,No
2022/07/16,02:50,0.147,0.138,0.213,0.208,0.214,0.116,0.078,west-northwest,5.4,No
2022/07/16,03:00,0.145,0.138,0.211,0.206,0.210,0.115,0.077,northwest,6.0,No
2022/07/16,03:10,0.144,0.137,0.214,0.206,0.211,0.115,0.076,northwest,6.2,No
2022/07/16,03:20,0.147,0.137,0.212,0.206,0.211,0.115,0.075,northwest,7.1,No
2022/07/16,03:30,0.145,0.136,0.213,0.204,0.209,0.113,0.076,northwest,7.8,No
2022/07/16,03:40,0.144,0.136,0.212,0.206,0.211,0.115,0.075,north-northwest,8.4,No
2022/07/16,03:50,0.144,0.137,0.211,0.205,0.211,0.114,0.074,north-northwest,8.7,No
2022/07/16,04:00,0.143,0.135,0.213,0.205,0.208,0.114,0.075,northwest,7.4,No
2022/07/16,04:10,0.144,0.136,0.212,0.205,0.212,0.115,0.075,northwest,8.6,No
2022/07/16,04:20,0.144,0.136,0.211,0.203,0.209,0.114,0.075,northwest,7.1,No
2022/07/16,04:30,0.144,0.135,0.213,0.206,0.210,0.114,0.075,northwest,6.5,No
2022/07/16,04:40,0.146,0.136,0.211,0.205,0.211,0.115,0.075,northwest,6.0,No
2022/07/16,04:50,0.145,0.135,0.212,0.204,0.209,0.114,0.075,northwest,6.8,No
2022/07/16,05:00,0.144,0.136,0.212,0.206,0.210,0.114,0.075,northwest,6.9,No
2022/07/16,05:10,0.146,0.135,0.211,0.204,0.210,0.114,0.074,northwest,7.1,No
2022/07/16,05:20,0.144,0.134,0.212,0.206,0.208,0.113,0.075,northwest,7.9,No
2022/07/16,05:30,0.145,0.135,0.210,0.205,0.211,0.113,0.074,west-northwest,4.9,No
2022/07/16,05:40,0.145,0.136,0.213,0.204,0.209,0.114,0.075,west-northwest,3.9,No
2022/07/16,05:50,0.143,0.136,0.212,0.206,0.208,0.113,0.075,west,2.4,No
2022/07/16,06:00,0.145,0.135,0.211,0.204,0.211,0.114,0.074,west,2.0,No
2022/07/16,06:10,0.144,0.135,0.212,0.205,0.210,0.113,0.075,southwest,1.7,No
2022/07/16,06:20,0.144,0.136,0.212,0.206,0.208,0.114,0.075,southwest,2.5,No
2022/07/16,06:30,0.146,0.136,0.212,0.203,0.211,0.115,0.075,west-southwest,1.5,No
2022/07/16,06:40,0.145,0.135,0.212,0.206,0.209,0.114,0.074,west-southwest,2.1,No
2022/07/16,06:50,0.145,0.136,0.212,0.206,0.208,0.113,0.075,west,1.9,No
2022/07/16,07:00,0.145,0.136,0.210,0.204,0.210,0.114,0.074,west-northwest,1.8,No
2022/07/16,07:10,0.144,0.134,0.213,0.206,0.211,0.114,0.075,north-northwest,2.1,No
2022/07/16,07:20,0.143,0.136,0.211,0.206,0.208,0.114,0.075,northwest,1.8,No
2022/07/16,07:30,0.145,0.135,0.211,0.204,0.208,0.113,0.074,north-northwest,1.6,No
2022/07/16,07:40,0.145,0.135,0.213,0.204,0.212,0.114,0.074,north-northwest,1.2,No
2022/07/16,07:50,0.143,0.136,0.212,0.206,0.210,0.115,0.075,north-northwest,0.7,No
2022/07/16,08:00,0.145,0.136,0.210,0.206,0.207,0.112,0.075,-,CALM,No
2022/07/16,08:10,0.146,0.136,0.213,0.204,0.209,0.114,0.074,southeast,0.7,No
2022/07/16,08:20,0.144,0.135,0.213,0.205,0.211,0.114,0.074,south-southeast,1.1,No
2022/07/16,08:30,0.143,0.136,0.213,0.207,0.211,0.114,0.075,south-southeast,1.1,No
2022/07/16,08:40,0.145,0.136,0.211,0.206,0.209,0.114,0.075,southeast,1.1,No
2022/07/16,08:50,0.146,0.136,0.213,0.206,0.209,0.114,0.076,south-southeast,1.9,No
2022/07/16,09:00,0.145,0.135,0.214,0.204,0.211,0.115,0.075,south-southeast,2.0,No
2022/07/16,09:10,0.144,0.136,0.212,0.207,0.212,0.114,0.075,southeast,2.6,No
2022/07/16,09:20,0.146,0.137,0.212,0.206,0.209,0.114,0.076,south-southeast,2.6,No
2022/07/16,09:30,0.145,0.136,0.212,0.205,0.209,0.116,0.075,south,3.2,No
2022/07/16,09:40,0.145,0.136,0.216,0.206,0.210,0.115,0.075,south-southeast,4.4,No
2022/07/16,09:50,0.145,0.137,0.214,0.207,0.212,0.115,0.075,south,3.7,Yes
2022/07/16,10:00,0.147,0.136,0.211,0.207,0.210,0.115,0.075,south,2.9,No
2022/07/16,10:10,0.145,0.137,0.212,0.205,0.210,0.116,0.075,south,3.3,Yes
2022/07/16,10:20,0.146,0.136,0.215,0.205,0.209,0.115,0.075,south,2.9,Yes
2022/07/16,10:30,0.144,0.136,0.213,0.208,0.211,0.115,0.076,south,2.4,No
2022/07/16,10:40,0.146,0.137,0.213,0.207,0.212,0.114,0.075,south-southeast,2.8,No
2022/07/16,10:50,0.145,0.136,0.211,0.206,0.210,0.115,0.075,south,2.3,No
2022/07/16,11:00,0.146,0.137,0.212,0.204,0.208,0.115,0.074,south,2.8,No
2022/07/16,11:10,0.145,0.135,0.215,0.205,0.208,0.114,0.074,south,2.2,No
2022/07/16,11:20,0.144,0.135,0.214,0.207,0.209,0.114,0.076,south,2.0,No
2022/07/16,11:30,0.146,0.136,0.214,0.208,0.211,0.115,0.075,south-southeast,0.7,No
2022/07/16,11:40,0.146,0.137,0.211,0.206,0.213,0.116,0.075,south-southeast,3.2,Yes
2022/07/16,11:50,0.146,0.138,0.213,0.205,0.210,0.115,0.074,south-southeast,3.5,Yes
2022/07/16,12:00,0.145,0.137,0.215,0.205,0.210,0.115,0.075,south-southeast,3.8,No
2022/07/16,12:10,0.145,0.137,0.216,0.209,0.210,0.115,0.075,south-southeast,4.3,Yes
2022/07/16,12:20,0.147,0.136,0.214,0.209,0.209,0.117,0.075,south-southeast,4.9,Yes
2022/07/16,12:30,0.148,0.138,0.214,0.207,0.213,0.116,0.075,south-southeast,5.3,Yes
2022/07/16,12:40,0.145,0.137,0.212,0.206,0.212,0.115,0.075,south-southeast,5.5,No
2022/07/16,12:50,0.145,0.137,0.215,0.207,0.210,0.116,0.075,south,4.8,No
2022/07/16,13:00,0.146,0.135,0.216,0.210,0.210,0.116,0.075,south,5.3,No
2022/07/16,13:10,0.147,0.136,0.214,0.208,0.208,0.117,0.075,south-southeast,5.0,No
2022/07/16,13:20,0.146,0.138,0.214,0.206,0.209,0.116,0.075,south-southeast,4.6,No
2022/07/16,13:30,0.146,0.138,0.214,0.206,0.213,0.114,0.075,south-southeast,2.9,No
2022/07/16,13:40,0.144,0.137,0.212,0.206,0.213,0.114,0.075,south-southeast,4.8,No
2022/07/16,13:50,0.144,0.137,0.213,0.205,0.212,0.116,0.075,south-southeast,5.0,No
2022/07/16,14:00,0.145,0.137,0.214,0.205,0.211,0.116,0.075,south-southeast,4.7,No
2022/07/16,14:10,0.144,0.135,0.211,0.205,0.211,0.116,0.075,south-southeast,5.0,No
2022/07/16,14:20,0.144,0.136,0.212,0.206,0.210,0.117,0.075,south-southeast,6.1,No
2022/07/16,14:30,0.144,0.136,0.213,0.205,0.209,0.114,0.074,south-southeast,5.2,No
2022/07/16,14:40,0.145,0.135,0.213,0.206,0.211,0.115,0.074,south-southeast,5.4,No
2022/07/16,14:50,0.144,0.135,0.213,0.206,0.210,0.116,0.075,south-southeast,4.9,No
2022/07/16,15:00,0.147,0.138,0.214,0.208,0.210,0.115,0.075,south-southeast,5.5,No
2022/07/16,15:10,0.148,0.137,0.217,0.210,0.209,0.116,0.074,south-southeast,6.2,No
2022/07/16,15:20,0.147,0.138,0.216,0.209,0.209,0.116,0.075,south-southeast,5.6,No
2022/07/16,15:30,0.146,0.136,0.214,0.207,0.213,0.115,0.074,south,5.9,No
2022/07/16,15:40,0.144,0.136,0.214,0.207,0.213,0.116,0.075,south,6.1,No
2022/07/16,15:50,0.147,0.138,0.215,0.209,0.210,0.116,0.075,south,5.5,No
2022/07/16,16:00,0.148,0.137,0.215,0.209,0.209,0.116,0.075,south,5.3,No
2022/07/16,16:10,0.146,0.137,0.216,0.208,0.213,0.115,0.074,south-southeast,4.7,No
2022/07/16,16:20,0.145,0.136,0.214,0.206,0.213,0.116,0.075,south-southeast,7.0,No
2022/07/16,16:30,0.147,0.138,0.214,0.207,0.211,0.116,0.076,south-southeast,7.8,No
2022/07/16,16:40,0.147,0.137,0.217,0.209,0.210,0.116,0.075,south,7.7,No
2022/07/16,16:50,0.146,0.136,0.216,0.208,0.213,0.116,0.075,south,7.2,No
2022/07/16,17:00,0.146,0.137,0.214,0.207,0.213,0.116,0.076,south,6.2,No
2022/07/16,17:10,0.148,0.137,0.216,0.209,0.209,0.116,0.075,south,5.2,No
2022/07/16,17:20,0.148,0.137,0.215,0.210,0.210,0.116,0.074,south-southeast,5.5,No
2022/07/16,17:30,0.145,0.136,0.214,0.207,0.212,0.116,0.075,south-southeast,7.3,No
2022/07/16,17:40,0.146,0.138,0.213,0.208,0.212,0.116,0.075,south-southeast,6.9,No
2022/07/16,17:50,0.147,0.137,0.216,0.209,0.210,0.116,0.074,south,7.6,No
2022/07/16,18:00,0.145,0.136,0.216,0.207,0.212,0.115,0.075,south,6.1,No
2022/07/16,18:10,0.146,0.138,0.214,0.207,0.213,0.116,0.075,south-southeast,5.7,No
2022/07/16,18:20,0.148,0.137,0.216,0.210,0.211,0.116,0.075,south,6.7,No
2022/07/16,18:30,0.147,0.136,0.215,0.208,0.211,0.116,0.075,south,5.7,No
2022/07/16,18:40,0.145,0.137,0.215,0.206,0.213,0.115,0.076,south-southeast,5.4,No
2022/07/16,18:50,0.148,0.137,0.215,0.210,0.211,0.116,0.075,south-southeast,5.7,No
2022/07/16,19:00,0.147,0.137,0.217,0.209,0.210,0.116,0.075,south,5.9,No
2022/07/16,19:10,0.146,0.136,0.214,0.207,0.213,0.116,0.076,south,5.7,No
2022/07/16,19:20,0.148,0.138,0.214,0.210,0.210,0.116,0.075,south,5.1,No
2022/07/16,19:30,0.147,0.137,0.216,0.210,0.210,0.117,0.075,south,5.0,No
2022/07/16,19:40,0.146,0.137,0.214,0.207,0.213,0.116,0.076,south,5.0,No
2022/07/16,19:50,0.147,0.137,0.216,0.209,0.211,0.116,0.075,south,5.4,No
2022/07/16,20:00,0.148,0.137,0.215,0.209,0.211,0.116,0.075,south,5.1,No
2022/07/16,20:10,0.146,0.138,0.215,0.207,0.213,0.116,0.075,south,5.5,No
2022/07/16,20:20,0.146,0.137,0.216,0.210,0.211,0.116,0.075,south,4.9,No
2022/07/16,20:30,0.147,0.136,0.215,0.208,0.211,0.117,0.075,south,3.8,No
2022/07/16,20:40,0.146,0.138,0.215,0.207,0.213,0.116,0.076,south,4.0,No
2022/07/16,20:50,0.147,0.137,0.216,0.209,0.211,0.116,0.075,south,4.7,No
2022/07/16,21:00,0.147,0.138,0.214,0.208,0.210,0.115,0.075,south,5.4,No
2022/07/16,21:10,0.146,0.137,0.216,0.207,0.212,0.115,0.076,south,5.7,No
2022/07/16,21:20,0.147,0.136,0.217,0.209,0.211,0.116,0.075,south-southeast,3.8,No
2022/07/16,21:30,0.147,0.138,0.214,0.208,0.210,0.116,0.075,south,3.5,No
2022/07/16,21:40,0.145,0.137,0.216,0.207,0.212,0.115,0.076,south,2.9,Yes
2022/07/16,21:50,0.146,0.136,0.215,0.210,0.211,0.116,0.075,south,4.1,No
2022/07/16,22:00,0.147,0.137,0.214,0.209,0.210,0.116,0.074,south,5.3,No
2022/07/16,22:10,0.146,0.138,0.216,0.206,0.212,0.116,0.076,south,5.3,Yes
2022/07/16,22:20,0.146,0.136,0.216,0.210,0.211,0.115,0.075,south,5.6,Yes
2022/07/16,22:30,0.148,0.138,0.214,0.206,0.208,0.117,0.075,south,4.3,No
2022/07/16,22:40,0.146,0.137,0.215,0.206,0.213,0.115,0.076,south,5.8,No
2022/07/16,22:50,0.146,0.137,0.215,0.210,0.211,0.116,0.075,south,6.1,No
2022/07/16,23:00,0.147,0.138,0.213,0.208,0.210,0.117,0.075,south,5.6,No
2022/07/16,23:10,0.147,0.137,0.216,0.206,0.213,0.115,0.075,south,6.5,No
2022/07/16,23:20,0.146,0.136,0.215,0.209,0.212,0.115,0.075,south,5.3,No
2022/07/16,23:30,0.147,0.138,0.214,0.209,0.210,0.116,0.075,south,4.1,No
2022/07/16,23:40,0.147,0.137,0.215,0.207,0.212,0.115,0.075,south-southeast,5.0,No
2022/07/16,23:50,0.145,0.136,0.215,0.209,0.212,0.115,0.075,south,5.0,No
